Worland, WY

6:38 PM MDT on March 25, 2017 (GMT -0600)
Worland Municipal

Weather History for KWRL - April, 2013

Change the Weather History Date:

Monday, April 22, 2013

  Actual Average Record
Temperature  
Mean Temperature 23 °F 48 °F  
Max Temperature 32 °F 62 °F 87 °F (1986)
Min Temperature 14 °F 33 °F 14 °F (2013)
Degree Days  
Heating Degree Days 42 18  
Month to date heating degree days 567 452  
Since 1 July heating degree days 7022 7338  
Cooling Degree Days 0 0  
Month to date cooling degree days 0 0  
Year to date cooling degree days 0 0  
Moisture  
Dew Point 23 °F    
Average Humidity 79    
Maximum Humidity 100    
Minimum Humidity 58    
Precipitation  
Precipitation 0.42 in 0.04 in 0.42 in (2013)
Month to date precipitation 0.90 0.53  
Year to date precipitation 1.49 1.41  
Sea Level Pressure  
Sea Level Pressure 30.26 in    
Wind  
Wind Speed 7 mph (NW)    
Max Wind Speed 16 mph    
Max Gust Speed 20 mph    
Visibility 3 miles    
Events Fog , Snow    
T = Trace of Precipitation, MM = Missing Value Source: NWS Daily Summary

Daily Weather History Graph

Daily Weather History Graph

Search for Another Location

Airport or City:

Trip Planner

Search our weather history database for the weather conditions in past years. The results will help you decide how hot, cold, wet, or windy it might be!

Date:

Astronomy

Apr. 22, 2013 Rise Set
Actual Time 6:16 AM MDT 8:04 PM MDT
Civil Twilight 5:45 AM MDT 8:35 PM MDT
Nautical Twilight 5:08 AM MDT 9:13 PM MDT
Astronomical Twilight 4:28 AM MDT 9:53 PM MDT
Moon 4:51 PM MDT (4/22) 4:19 AM MDT (4/22)
Length of Visible Light 14h 49m
Length of Day
13h 47m
Waxing Gibbous, 88% of the Moon is Illuminated
Apr 22
Waxing Gibbous
Apr 25
Full
May 2
Last Quarter
May 9
New
May 17
First Quarter

Hourly Weather History & Observations

Time (MDT) Temp. Windchill Dew Point Humidity Pressure Visibility Wind Dir Wind Speed Gust Speed Precip Events Conditions
12:11 AM 28.4 °F 18.5 °F 26.6 °F 93% 30.06 in 0.2 mi WNW 11.5 mph 21.9 mph 0.02 in Fog , Snow Heavy Snow
12:21 AM 26.6 °F 16.8 °F 26.6 °F 100% 30.06 in 0.2 mi NW 10.4 mph - 0.03 in Fog , Snow Heavy Snow
12:53 AM 27.0 °F 19.5 °F 26.1 °F 96% 30.11 in 0.2 mi WNW 6.9 mph 17.3 mph 0.10 in Fog , Snow Snow
1:53 AM 26.1 °F 18.4 °F 25.0 °F 96% 30.12 in 0.2 mi WNW 6.9 mph - 0.15 in Fog , Snow Heavy Snow
2:36 AM 26.6 °F 18.2 °F 24.8 °F 93% 30.10 in 0.5 mi WNW 8.1 mph - 0.07 in Fog , Snow Snow
2:53 AM 26.1 °F 16.8 °F 24.1 °F 92% 30.14 in 0.8 mi West 9.2 mph - 0.08 in Snow Light Snow
3:53 AM 25.0 °F 15.5 °F 24.1 °F 96% 30.14 in 0.5 mi West 9.2 mph - 0.04 in Fog , Snow Snow
4:40 AM 24.8 °F 16.9 °F 24.8 °F 100% 30.11 in 1.0 mi WSW 6.9 mph - 0.04 in Snow Light Snow
4:53 AM 25.0 °F 16.3 °F 24.1 °F 96% 30.15 in 0.8 mi WSW 8.1 mph - 0.05 in Snow Light Snow
5:23 AM 24.8 °F 19.1 °F 24.8 °F 100% 30.12 in 0.8 mi WSW 4.6 mph - 0.02 in Snow Light Snow
5:33 AM 24.8 °F 17.9 °F 23.0 °F 93% 30.12 in 1.0 mi WSW 5.8 mph - 0.02 in Snow Light Snow
5:42 AM 24.8 °F 19.1 °F 23.0 °F 93% 30.13 in 1.2 mi West 4.6 mph - 0.03 in Snow Light Snow
5:53 AM 25.0 °F 18.1 °F 23.0 °F 92% 30.19 in 1.2 mi SW 5.8 mph - 0.03 in Snow Light Snow
6:33 AM 24.8 °F 14.6 °F 23.0 °F 93% 30.15 in 0.5 mi WSW 10.4 mph - 0.01 in Fog , Snow Snow
6:46 AM 24.8 °F 15.3 °F 23.0 °F 93% 30.16 in 0.2 mi WSW 9.2 mph - 0.02 in Fog , Snow Snow
6:53 AM 25.0 °F 15.5 °F 23.0 °F 92% 30.24 in 0.2 mi WSW 9.2 mph - 0.02 in Fog , Snow Snow
7:53 AM 25.0 °F 14.8 °F 23.0 °F 92% 30.27 in 0.5 mi West 10.4 mph - 0.03 in Fog , Snow Light Snow
8:10 AM 24.8 °F 17.9 °F 23.0 °F 93% 30.18 in 0.5 mi West 5.8 mph - 0.00 in Fog , Snow Light Snow
8:53 AM 25.0 °F 16.3 °F 23.0 °F 92% 30.30 in 0.5 mi WSW 8.1 mph - 0.02 in Fog , Snow Light Snow
9:24 AM 24.8 °F 15.3 °F 23.0 °F 93% 30.20 in 0.8 mi WSW 9.2 mph - 0.00 in Snow Light Snow
9:37 AM 26.6 °F 17.5 °F 24.8 °F 93% 30.20 in 1.2 mi West 9.2 mph - 0.00 in Snow Light Snow
9:53 AM 27.0 °F 21.6 °F 23.0 °F 85% 30.32 in 1.0 mi West 4.6 mph 16.1 mph 0.00 in Snow Light Snow
10:03 AM 28.4 °F 19.7 °F 23.0 °F 80% 30.21 in 2.5 mi WNW 9.2 mph - 0.00 in Snow Light Snow
10:10 AM 28.4 °F 22.2 °F 23.0 °F 80% 30.21 in 6.0 mi WNW 5.8 mph - 0.00 in Snow Light Snow
10:18 AM 28.4 °F 19.7 °F 23.0 °F 80% 30.21 in 10.0 mi WNW 9.2 mph - 0.00 in   Mostly Cloudy
10:53 AM 28.9 °F 23.9 °F 24.1 °F 82% 30.34 in 10.0 mi NW 4.6 mph - 0.00 in   Mostly Cloudy
11:53 AM 30.0 °F - 21.9 °F 72% 30.37 in 10.0 mi Calm Calm - N/A   Overcast
12:53 PM 30.9 °F 22.2 °F 21.9 °F 69% 30.37 in 10.0 mi NNE 10.4 mph - N/A   Overcast
1:41 PM 30.2 °F 20.8 °F 24.8 °F 80% 30.27 in 9.0 mi North 11.5 mph - 0.00 in   Overcast
1:51 PM 28.4 °F 17.5 °F 24.8 °F 86% 30.27 in 3.0 mi North 13.8 mph - 0.00 in Snow Light Snow
1:53 PM 28.9 °F 18.6 °F 25.0 °F 85% 30.39 in 2.0 mi North 12.7 mph - 0.00 in Snow Light Snow
2:00 PM 28.4 °F 19.1 °F 24.8 °F 86% 30.27 in 1.0 mi North 10.4 mph - 0.00 in Snow Light Snow
2:07 PM 28.4 °F 18.5 °F 24.8 °F 86% 30.27 in 0.5 mi North 11.5 mph - 0.00 in Fog , Snow Light Snow
2:14 PM 28.4 °F 18.0 °F 24.8 °F 86% 30.27 in 0.5 mi NNE 12.7 mph - 0.00 in Fog , Snow Light Snow
2:27 PM 28.4 °F 18.5 °F 24.8 °F 86% 30.27 in 1.0 mi NNE 11.5 mph - 0.01 in Snow Light Snow
2:40 PM 28.4 °F 19.1 °F 24.8 °F 86% 30.28 in 1.0 mi North 10.4 mph - 0.01 in Snow Light Snow
2:46 PM 28.4 °F 18.5 °F 24.8 °F 86% 30.28 in 0.8 mi North 11.5 mph - 0.01 in Snow Light Snow
2:50 PM 28.4 °F 19.7 °F 24.8 °F 86% 30.28 in 1.0 mi North 9.2 mph - 0.01 in Snow Light Snow
2:53 PM 28.9 °F 20.4 °F 25.0 °F 85% 30.40 in 1.0 mi North 9.2 mph - 0.01 in Snow Light Snow
3:09 PM 28.4 °F 18.0 °F 24.8 °F 86% 30.28 in 1.0 mi North 12.7 mph - 0.00 in Snow Light Snow
3:41 PM 28.4 °F 18.5 °F 24.8 °F 86% 30.28 in 1.2 mi NNW 11.5 mph - 0.00 in Snow Light Snow
3:53 PM 28.0 °F 17.5 °F 23.0 °F 81% 30.41 in 1.5 mi NNW 12.7 mph - 0.00 in Snow Light Snow
4:03 PM 28.4 °F 16.6 °F 23.0 °F 80% 30.29 in 2.0 mi NNW 16.1 mph - 0.00 in Snow Light Snow
4:10 PM 28.4 °F 17.5 °F 23.0 °F 80% 30.29 in 1.0 mi NNW 13.8 mph - 0.00 in Snow Light Snow
4:19 PM 28.4 °F 18.5 °F 23.0 °F 80% 30.29 in 2.0 mi NNW 11.5 mph - 0.00 in Snow Light Snow
4:28 PM 30.2 °F 20.2 °F 21.2 °F 69% 30.29 in 3.0 mi NNW 12.7 mph - 0.00 in   Haze
4:53 PM 30.0 °F 21.7 °F 21.0 °F 69% 30.41 in 7.0 mi NNW 9.2 mph - 0.00 in   Overcast
5:37 PM 30.2 °F 23.4 °F 17.6 °F 60% 30.29 in 10.0 mi North 6.9 mph - N/A   Overcast
5:53 PM 30.9 °F 24.3 °F 18.0 °F 59% 30.41 in 10.0 mi NNW 6.9 mph - N/A   Overcast
6:53 PM 30.0 °F 21.7 °F 21.9 °F 72% 30.42 in 10.0 mi NW 9.2 mph - N/A   Overcast
7:53 PM 28.0 °F 22.8 °F 21.0 °F 75% 30.44 in 10.0 mi West 4.6 mph - N/A   Overcast
8:53 PM 27.0 °F 19.5 °F 19.9 °F 75% 30.46 in 10.0 mi WSW 6.9 mph - N/A   Overcast
9:53 PM 24.1 °F 19.7 °F 17.1 °F 75% 30.47 in 10.0 mi West 3.5 mph - N/A   Overcast
10:53 PM 21.9 °F 17.2 °F 14.0 °F 72% 30.47 in 10.0 mi WSW 3.5 mph - N/A   Partly Cloudy
11:53 PM 16.0 °F - 12.0 °F 84% 30.48 in 10.0 mi Calm Calm - N/A   Overcast